Stations météo

réclame
Mon MeteoGroup
Oostende Airport, Belgique (6407): Température de l'air & dewpoint: 12.11.2018 05:00:00 - 18.11.2018 05:00:00 (CET)Oostende Airport, Belgique (6407): Vitesse du vent & gusts: 12.11.2018 05:00:00 - 18.11.2018 05:00:00 (CET)Oostende Airport, Belgique (6407): Direction du vent: 12.11.2018 05:00:00 - 18.11.2018 05:00:00 (CET)Oostende Airport, Belgique (6407): reduced air pressure: 12.11.2018 05:00:00 - 18.11.2018 05:00:00 (CET)Oostende Airport, Belgique (6407): visibility: 12.11.2018 05:00:00 - 18.11.2018 05:00:00 (CET)
Date & Time tt [°C] td [°C] ff [km/h] ff [knt] fx [km/h] fx [knt] dd ppp [hPa] vv [km]
18.11.2018 05:00:00 2,0 -1,0 22 12 - - E - 10
18.11.2018 04:00:00 2,3 -1,2 21 11 - - E 1028,6 10
18.11.2018 03:00:00 2,9 -0,7 21 11 29 16 E 1028,5 10
18.11.2018 02:00:00 3,2 -0,3 16 9 25 14 E 1028,7 10
18.11.2018 01:00:00 3,3 0,1 18 10 - - E 1028,6 10
18.11.2018 00:00:00 4,0 0,0 21 11 29 16 E 1028,6 10
17.11.2018 23:00:00 4,2 0,3 21 11 29 16 E 1028,6 10
17.11.2018 22:00:00 5,0 1,1 21 11 - - E 1028,3 10
17.11.2018 21:00:00 5,6 1,6 28 15 40 21 E 1028,2 10
17.11.2018 20:00:00 6,0 1,6 28 15 40 21 E 1028,1 10
17.11.2018 19:00:00 6,1 1,4 24 13 - - E 1027,9 10
17.11.2018 18:00:00 6,4 1,7 21 11 29 16 E 1027,9 10
17.11.2018 17:00:00 7,3 2,4 22 12 29 16 ENE 1027,7 10
17.11.2018 16:00:00 8,0 3,0 18 10 - - E - 10
17.11.2018 15:00:00 8,7 2,8 24 13 36 19 E 1027,9 10
17.11.2018 14:00:00 8,4 3,3 22 12 29 16 E 1028,1 10
17.11.2018 13:00:00 7,4 3,1 21 11 - - E 1028,3 10
17.11.2018 12:00:00 5,8 2,8 21 11 29 16 E 1028,8 10
17.11.2018 11:00:00 4,3 1,9 21 11 25 14 E 1028,7 8
17.11.2018 10:00:00 2,8 1,1 15 8 - - E 1028,7 4,0
17.11.2018 09:00:00 1,1 0,0 13 7 18 10 E 1028,7 1,5
17.11.2018 08:00:00 1,3 0,5 11 6 18 10 E 1028,4 0,4
17.11.2018 07:00:00 2,2 1,4 13 7 - - E 1028,5 0,2
17.11.2018 06:00:00 2,7 1,9 11 6 18 10 ENE 1028,2 0,2
17.11.2018 05:00:00 3,4 2,6 8 4 14 8 E 1028,3 0,2
17.11.2018 04:00:00 3,7 3,0 9 5 - - ESE 1028,5 0,2
17.11.2018 03:00:00 4,1 3,4 9 5 18 10 E 1028,5 0,2
17.11.2018 02:00:00 4,9 3,9 15 8 18 10 E 1028,4 2,5
17.11.2018 01:00:00 5,3 4,1 11 6 - - SE 1028,1 2,5
17.11.2018 00:00:00 6,0 4,6 8 4 18 10 SE 1028,0 6
16.11.2018 23:00:00 6,2 4,9 9 5 18 10 ESE 1028,1 6
16.11.2018 22:00:00 5,8 4,3 13 7 - - ESE 1027,9 4,5
16.11.2018 21:00:00 5,7 4,7 11 6 18 10 E 1027,9 0,9
16.11.2018 20:00:00 5,6 4,5 11 6 22 12 E 1027,9 0,7
16.11.2018 19:00:00 5,7 4,5 13 7 - - E 1027,4 0,5
16.11.2018 18:00:00 6,0 5,0 16 9 25 14 ESE 1026,9 0,5
16.11.2018 17:00:00 6,1 5,0 16 9 25 14 ESE 1026,7 0,5
16.11.2018 16:00:00 7,0 5,0 11 6 - - ESE - 0,6
16.11.2018 15:00:00 6,7 5,6 11 6 18 10 E 1027,2 0,7
16.11.2018 14:00:00 6,7 5,7 15 8 18 10 ESE 1027,2 1,0
16.11.2018 13:00:00 6,5 5,3 11 6 - - SE 1027,4 1,2
16.11.2018 12:00:00 6,2 5,0 13 7 18 10 SE 1027,8 1,5
16.11.2018 11:00:00 6,2 5,2 11 6 18 10 SSE 1027,7 1,0
16.11.2018 10:00:00 6,3 5,3 11 6 - - SE 1027,2 0,5
16.11.2018 09:00:00 6,2 5,0 13 7 18 10 S 1027,0 0,8
16.11.2018 08:00:00 6,1 5,0 8 4 14 8 SSE 1026,6 0,8
16.11.2018 07:00:00 5,9 4,8 11 6 - - SE 1026,0 0,6
16.11.2018 06:00:00 6,1 5,1 13 7 22 12 S 1025,7 0,5
16.11.2018 05:00:00 6,1 5,1 16 9 22 12 SSE 1025,4 0,5
16.11.2018 04:00:00 6,1 5,1 13 7 - - SE 1025,2 0,3
16.11.2018 03:00:00 6,5 5,5 11 6 25 14 SSE 1025,1 0,3
16.11.2018 02:00:00 6,5 5,4 16 9 25 14 SSE 1024,9 0,3
16.11.2018 01:00:00 6,6 5,6 18 10 - - SSE 1024,8 0,3
16.11.2018 00:00:00 6,6 5,5 15 8 29 16 S 1024,6 0,3
15.11.2018 23:00:00 6,3 5,2 18 10 29 16 S 1024,3 0,3
15.11.2018 22:00:00 6,6 5,5 18 10 - - S 1024,4 0,3
15.11.2018 21:00:00 6,8 5,6 21 11 25 14 S 1024,0 0,3
15.11.2018 20:00:00 7,2 6,0 18 10 29 16 SSE 1023,9 0,5
15.11.2018 19:00:00 8,0 6,0 21 11 - - S - 1,2
15.11.2018 18:00:00 7,9 6,6 16 9 29 16 SSE 1023,3 2,5
15.11.2018 17:00:00 8,5 6,9 22 12 29 16 S 1023,2 3,0
15.11.2018 16:00:00 8,6 6,9 18 10 - - SSE 1023,1 4,0
15.11.2018 15:00:00 8,7 6,8 18 10 29 16 S 1023,2 3,5
15.11.2018 14:00:00 9,5 6,6 24 13 29 16 S 1023,4 6
15.11.2018 13:00:00 10,8 7,1 18 10 - - S 1023,4 9
15.11.2018 12:00:00 9,7 6,5 16 9 22 12 SSE 1023,6 9
15.11.2018 11:00:00 8,8 6,2 15 8 22 12 SSE 1023,9 9
15.11.2018 10:00:00 7,4 5,2 13 7 - - SSE 1024,1 9
15.11.2018 09:00:00 5,9 4,2 11 6 14 8 SE 1023,9 9
15.11.2018 08:00:00 5,5 4,1 11 6 14 8 SSE 1023,5 8
15.11.2018 07:00:00 6,0 4,5 9 5 - - SSE 1023,3 10
15.11.2018 06:00:00 5,9 4,4 11 6 14 8 SE 1023,3 10
15.11.2018 05:00:00 6,0 4,6 11 6 14 8 SE 1023,3 10
15.11.2018 04:00:00 6,3 4,8 11 6 - - SE 1023,4 10
15.11.2018 03:00:00 6,5 4,9 13 7 14 8 SSE 1023,6 10
15.11.2018 02:00:00 6,5 5,0 11 6 14 8 SE 1023,6 10
15.11.2018 01:00:00 6,1 4,6 9 5 - - SSE 1023,9 10
15.11.2018 00:00:00 6,6 4,9 13 7 18 10 SSE 1023,9 10
14.11.2018 23:00:00 6,8 5,1 13 7 18 10 S 1023,9 10
14.11.2018 22:00:00 7,6 5,7 15 8 - - SSE 1023,9 10
14.11.2018 21:00:00 7,5 5,6 11 6 14 8 SE 1024,0 10
14.11.2018 20:00:00 7,3 5,4 9 5 18 10 SE 1024,3 10
14.11.2018 19:00:00 8,9 6,4 13 7 - - SSE 1024,4 10
14.11.2018 18:00:00 9,3 6,9 16 9 18 10 SSE 1024,4 10
14.11.2018 17:00:00 11,2 7,9 13 7 29 16 SSE 1024,7 10
14.11.2018 16:00:00 12,3 7,8 21 11 - - S 1025,0 10
14.11.2018 15:00:00 12,3 7,9 18 10 29 16 S 1025,2 10
14.11.2018 14:00:00 12,2 7,7 18 10 29 16 S 1025,8 10
14.11.2018 13:00:00 11,9 7,9 18 10 - - S 1026,3 10
14.11.2018 12:00:00 11,0 7,8 16 9 22 12 S 1026,8 10
14.11.2018 11:00:00 9,5 6,8 15 8 22 12 S 1027,3 9
14.11.2018 10:00:00 7,6 5,7 11 6 - - S 1027,1 8
14.11.2018 09:00:00 5,8 4,5 11 6 14 8 S 1026,9 8
14.11.2018 08:00:00 5,4 4,2 11 6 18 10 S 1026,7 7
14.11.2018 07:00:00 5,0 3,9 9 5 - - SSE 1026,5 10
14.11.2018 06:00:00 5,8 4,3 11 6 18 10 S 1026,4 10
14.11.2018 05:00:00 6,0 5,0 13 7 - - S - 10
14.11.2018 04:00:00 6,1 4,6 11 6 - - S 1027,0 10
14.11.2018 03:00:00 6,1 4,6 11 6 14 8 S 1027,9 15
14.11.2018 02:00:00 6,7 5,1 11 6 14 8 S 1028,1 10
14.11.2018 01:00:00 6,9 5,3 9 5 - - SSW 1028,4 10
14.11.2018 00:00:00 7,4 5,5 13 7 22 12 S 1028,1 10
13.11.2018 23:00:00 7,9 6,0 13 7 18 10 S 1028,2 10
13.11.2018 22:00:00 8,3 6,8 13 7 - - SSW 1028,1 10
13.11.2018 21:00:00 8,9 7,4 15 8 18 10 SSW 1027,6 10
13.11.2018 20:00:00 8,9 7,4 13 7 25 14 SSW 1027,5 10
13.11.2018 19:00:00 9,1 7,5 18 10 - - SSW 1026,9 15
13.11.2018 18:00:00 9,1 7,6 16 9 22 12 SSW 1026,7 10
13.11.2018 17:00:00 10,6 8,5 18 10 32 18 SSW 1026,2 10
13.11.2018 16:00:00 12,4 8,7 22 12 - - WSW 1025,6 10
13.11.2018 15:00:00 12,8 9,7 16 9 29 16 SW 1024,9 10
13.11.2018 14:00:00 12,2 9,0 18 10 32 18 SW 1024,5 10
13.11.2018 13:00:00 11,9 9,0 24 13 - - SW 1023,8 10
13.11.2018 12:00:00 11,7 8,7 28 15 43 23 SW 1023,3 10
13.11.2018 11:00:00 10,2 7,6 31 17 43 23 SSW 1022,6 10
13.11.2018 10:00:00 8,6 6,9 26 14 - - SSW 1021,8 10
13.11.2018 09:00:00 8,0 6,2 24 13 40 21 SSW 1020,8 10
13.11.2018 08:00:00 8,4 6,7 26 14 47 25 SSW 1019,6 10
13.11.2018 07:00:00 8,5 7,0 24 13 - - SSW 1019,0 7
13.11.2018 06:00:00 8,2 6,6 15 8 22 12 SSW 1018,7 10
13.11.2018 05:00:00 8,2 6,5 16 9 29 16 S 1017,9 10
13.11.2018 04:00:00 8,5 6,8 22 12 - - S 1017,7 10
13.11.2018 03:00:00 8,6 6,8 24 13 32 18 S 1017,4 10
13.11.2018 02:00:00 8,6 6,9 21 11 29 16 S 1017,3 10
13.11.2018 01:00:00 8,4 6,6 18 10 - - S 1016,6 10
13.11.2018 00:00:00 8,6 6,9 21 11 25 14 S 1016,5 10
12.11.2018 23:00:00 8,8 7,0 18 10 25 14 S 1016,4 10
12.11.2018 22:00:00 9,0 7,1 18 10 - - S 1016,5 10
12.11.2018 21:00:00 9,1 7,2 21 11 25 14 S 1016,3 10
12.11.2018 20:00:00 9,2 7,4 16 9 25 14 S 1016,1 10
12.11.2018 19:00:00 9,7 7,5 15 8 - - S 1015,9 10
12.11.2018 18:00:00 9,9 7,7 11 6 18 10 S 1015,4 10
12.11.2018 17:00:00 11,0 8,0 13 7 - - S - 10
12.11.2018 16:00:00 11,6 8,8 18 10 - - S 1014,3 10
12.11.2018 15:00:00 11,9 8,6 21 11 29 16 SSW 1013,9 10
12.11.2018 14:00:00 11,5 8,2 16 9 25 14 S 1013,5 10
12.11.2018 13:00:00 11,3 8,8 16 9 - - SSW 1013,2 10
12.11.2018 12:00:00 10,0 8,0 15 8 - - SSW - 10
12.11.2018 11:00:00 9,9 8,2 15 8 18 10 SSW 1012,8 8
12.11.2018 10:00:00 9,6 8,0 11 6 - - S 1012,3 5
12.11.2018 09:00:00 9,3 8,0 11 6 18 10 S 1011,9 4,5
12.11.2018 08:00:00 9,5 8,2 9 5 14 8 S 1011,6 4,0
12.11.2018 07:00:00 9,6 8,3 11 6 - - S 1011,1 3,5
12.11.2018 06:00:00 9,8 8,3 15 8 22 12 SSE 1010,6 5
12.11.2018 05:00:00 9,8 8,3 16 9 22 12 SSE 1010,4 7

tt = Température de l'air
td = dewpoint
ff = Vitesse du vent
fx = gusts
dd = Direction du vent
ppp = reduced air pressure
vv = visibility

stations d'obs. à proximité